Location: *
(58.7167°N, 26.1833°E)
Time: 10:10:02
(UTC+00:00)

Cosmos 2227 Rocket - Pass Details

Date: 25 August 2019
Orbit: 837 x 846 km, 71.0° (Epoch: 14 September)

Event Time Altitude Azimuth Distance (km) Brightness Sun altitude
Exits shadow 23:25:50 28° 160° (SSE) 1,538 3.1 -19.3°
Maximum altitude 23:28:08 41° 113° (ESE) 1,216 3.0 -19.2°
Drops below altitude 10° 23:33:24 10° 45° (NE) 2,476 5.6 -19.0°
Sets 23:35:58 0° 38° (NE) 3,417 6.7 -18.9°
